{"data":{"norad_id":60395,"epoch":"2026-05-25T02:49:27.746400Z","epoch_age_seconds":62094,"freshness":"FRESH","line1":"1 60395U 24140S   26145.11768225  .00000078  00000+0  10198-3 0  9990","line2":"2 60395  88.9726 282.4979 0017030  95.2864 265.0231 13.51006620 90193","mean_motion":13.5100662,"eccentricity":0.001703,"inclination_deg":88.9726,"raan_deg":282.4979,"arg_perigee_deg":95.2864,"mean_anomaly_deg":265.0231,"bstar":0.00010198,"rev_number":9019,"period_min":106.58719052021,"perigee_km":1055.8755387065,"apogee_km":1081.2389793528,"semimajor_km":7446.6942590297,"source":"CELESTRAK","updated_at":"2026-05-25T13:38:02.043981Z"}}